This demonstration page uses our WeatherBlox Daily Observations layout. Learn more.

Hourly Observations for January 3, 2017

Temp ( °F °C ) Dew Point ( °F °C ) Humidity (%) Winds ( mph kmh ) Pressure ( in mb ) Visibility ( mi km ) Precip ( " mm )
12:24 am 00:24 Cloudy 28 -2 25 -4 86 86 NNW 21 33 30.12 1020 10 16.0934 0 0
12:54 am 00:54 Cloudy 28 -2.2 23 -5 81 81 NNW 18 30 30.08 1019 10 16.0934 0 0
1:54 am 01:54 Cloudy 26 -3.3 19 -7.2 75 75 NNW 18 30 30.11 1020 10 16.0934 0 0
1:58 am 01:58 Cloudy 27 -3 19 -7 74 74 NNW 22 35 30.15 1021 10 16.0934 0 0
2:54 am 02:54 Cloudy 23 -5 15 -9.4 72 72 NNW 22 35 30.15 1021 10 16.0934 0 0
3:54 am 03:54 Mostly Clear 20 -6.7 11 -11.7 68 68 NNW 25 41 30.16 1021 10 16.0934 0 0
4:54 am 04:54 Cloudy 20 -6.7 9 -12.8 62 62 NNW 23 37 30.16 1021 10 16.0934 0 0
5:54 am 05:54 Clear 19 -7.2 7 -13.9 59 59 NNW 29 46 30.17 1022 10 16.0934 0 0
6:54 am 06:54 Clear 17 -8.3 7 -13.9 64 64 NNW 16 26 30.21 1023 10 16.0934 0 0
7:54 am 07:54 Sunny 16 -8.9 6 -14.4 65 65 NNW 23 37 30.24 1024 10 16.0934 0 0
8:54 am 08:54 Sunny 16 -8.9 5 -15 62 62 NNW 22 35 30.29 1026 10 16.0934 0 0
9:54 am 09:54 Sunny 17 -8.3 5 -15 59 59 N 22 35 30.31 1027 10 16.0934 0 0
10:54 am 10:54 Cloudy 18 -7.8 5 -15 57 57 NNW 25 41 30.34 1027 10 16.0934 0 0
11:54 am 11:54 Partly Cloudy 20 -6.7 4 -15.6 50 50 N 25 41 30.33 1027 10 16.0934 0 0
12:54 pm 12:54 Mostly Cloudy 21 -6.1 5 -15 50 50 NNW 23 37 30.31 1026 10 16.0934 0 0
1:54 pm 13:54 Mostly Cloudy 23 -5 6 -14.4 48 48 NNW 24 39 30.32 1027 10 16.0934 0 0
2:54 pm 14:54 Sunny 24 -4.4 6 -14.4 46 46 N 21 33 30.34 1027 10 16.0934 0 0
3:54 pm 15:54 Sunny 22 -5.6 6 -14.4 50 50 N 24 39 30.36 1028 10 16.0934 0 0
4:54 pm 16:54 Sunny 20 -6.7 5 -15 52 52 N 16 26 30.36 1028 10 16.0934 0 0
5:54 pm 17:54 Clear 18 -7.8 5 -15 57 57 N 14 22 30.37 1029 10 16.0934 0 0
6:54 pm 18:54 Clear 16 -8.9 4 -15.6 59 59 NNW 15 24 30.4 1029 10 16.0934 0 0
7:54 pm 19:54 Clear 15 -9.4 3 -16.1 59 59 NNW 10 17 30.41 1030 10 16.0934 0 0
8:54 pm 20:54 Clear 14 -10 4 -15.6 64 64 NNW 9 15 30.42 1030 10 16.0934 0 0
9:54 pm 21:54 Clear 13 -10.6 3 -16.1 64 64 NNW 13 20 30.44 1031 10 16.0934 0 0
10:54 pm 22:54 Clear 12 -11.1 1 -17.2 61 61 NNW 13 20 30.44 1031 10 16.0934 0 0
11:54 pm 23:54 Clear 11 -11.7 1 -17.2 64 64 NNW 14 22 30.44 1031 10 16.0934 0 0

Powered by AerisWeather